Location: Banff
(51.1667°N, 115.5667°W)
Time: 11:24:01
(UTC+00:00)

SR - Pass Details

Date: 04 December 2020
Orbit: 575 x 880 km, 66.7° (Epoch: 20 January)

Event Time Altitude Azimuth Distance (km) Brightness Sun altitude
Rises 02:13:58 0° 239° (WSW) 2,849 ? -23.6°
Reaches altitude 10° 02:16:14 10° 247° (WSW) 1,982 ? -23.9°
Maximum altitude 02:20:28 42° 318° (NW) 937 ? -24.6°
Enters shadow 02:21:46 34° 357° (N) 1,095 ? -24.8°
